FW0202 Weather Reports


Display with metric or nautical units.
time (UTC)temp
F
wind
direction
speed
MPH
gust
MPH
rain 1hr
in
rain 24hr
in
rain mn
in
humidity
%
barometer
mb
20260906152335 57 5 7.0 8.0 0.00 0.00 0.00 93 1000.8
20260906151611 56 1 6.0 8.0 0.00 0.00 0.00 93 1000.8
20260906151057 56 7 6.0 8.0 0.00 0.00 0.00 92 1000.9
20260906150542 56 3 6.0 7.0 0.00 0.00 0.00 92 1000.9
20260906150039 56 5 7.0 7.0 0.00 0.00 0.00 92 1000.9
20260906145534 56 7 7.0 8.0 0.00 0.00 0.00 92 1001.0
20260906145029 56 4 7.0 8.0 0.00 0.00 0.00 92 1001.0
20260906144514 56 0 6.0 8.0 0.00 0.00 0.00 92 1001.1
20260906144237 56 4 7.0 8.0 0.00 0.00 0.00 91 1000.9
20260906143507 57 5 6.0 7.0 0.00 0.00 0.00 91 1001.0
20260906143007 57 0 7.0 7.0 0.00 0.00 0.00 91 1001.0
20260906142447 57 7 7.0 7.0 0.00 0.00 0.00 91 1001.1
20260906141944 57 4 6.0 7.0 0.00 0.00 0.00 91 1001.0
20260906141437 57 5 7.0 7.0 0.00 0.00 0.00 90 1001.0
20260906141359 57 0 6.0 7.0 0.00 0.00 0.00 90 1000.9
20260906140407 57 144 1.0 2.0 0.00 0.00 0.00 90 1001.1
20260906135906 57 102 0.0 2.0 0.00 0.00 0.00 90 1001.1
20260906135408 57 66 0.0 2.0 0.00 0.00 0.00 89 1001.0
20260906134906 57 116 0.0 2.0 0.00 0.00 0.00 89 1000.9
20260906134621 58 131 0.0 2.0 0.00 0.00 0.00 89 1001.2
20260906133859 58 110 0.0 2.0 0.00 0.00 0.00 88 1001.2
20260906133344 58 92 0.0 2.0 0.00 0.00 0.00 88 1001.2
20260906133328 58 142 0.0 2.0 0.00 0.00 0.00 88 1000.8
20260906132335 58 117 0.0 2.0 0.00 0.00 0.00 87 1001.0
20260906131821 58 104 1.0 2.0 0.00 0.00 0.00 87 1001.2
20260906131317 58 77 0.0 2.0 0.00 0.00 0.00 87 1001.2
20260906130814 59 112 0.0 2.0 0.00 0.00 0.00 87 1001.3
20260906130321 59 315 0.0 1.0 0.00 0.00 0.00 87 1001.1
20260906125804 59 44 0.0 1.0 0.00 0.00 0.00 87 1001.0
20260906125300 58 45 0.0 2.0 0.00 0.00 0.00 87 1001.1
20260906124756 58 152 0.0 2.0 0.00 0.00 0.00 87 1000.9
20260906124721 58 50 0.0 1.0 0.00 0.00 0.00 87 1001.0
20260906123734 58 135 0.0 1.0 0.00 0.00 0.00 87 1001.1
20260906123234 58 118 0.0 2.0 0.00 0.00 0.00 87 1001.1
20260906122734 58 69 0.0 2.0 0.00 0.00 0.00 87 1001.1
20260906122234 58 62 0.0 2.0 0.00 0.00 0.00 86 1001.1
20260906121730 58 64 0.0 2.0 0.00 0.00 0.00 86 1001.1
20260906121216 58 124 0.0 2.0 0.00 0.00 0.00 85 1001.0
20260906120712 58 68 0.0 1.0 0.00 0.00 0.00 85 1001.0
20260906120208 58 143 0.0 1.0 0.00 0.00 0.00 85 1000.9
20260906115704 58 80 0.0 2.0 0.00 0.00 0.00 85 1001.1
20260906115158 59 68 0.0 2.0 0.00 0.00 0.00 85 1001.1
20260906114654 59 89 0.0 2.0 0.00 0.00 0.00 84 1000.8
20260906114140 59 91 1.0 2.0 0.00 0.00 0.00 83 1000.9
20260906113859 59 103 0.0 2.0 0.00 0.00 0.00 82 1000.8
20260906113132 60 145 0.0 2.0 0.00 0.00 0.00 81 1000.9
20260906112617 60 97 0.0 2.0 0.00 0.00 0.00 81 1000.8
20260906112113 60 102 0.0 2.0 0.00 0.00 0.00 81 1000.8
20260906111831 61 128 0.0 2.0 0.00 0.00 0.00 80 1001.0
20260906111303 61 112 0.0 2.0 0.00 0.00 0.00 80 1001.0
20260906110540 61 89 0.0 2.0 0.00 0.00 0.00 80 1000.9
20260906110301 61 84 0.0 1.0 0.00 0.00 0.00 79 1000.7
20260906105521 62 89 0.0 2.0 0.00 0.00 0.00 79 1000.8
20260906105029 62 165 0.0 2.0 0.00 0.00 0.00 78 1000.6
20260906104511 62 125 0.0 2.0 0.00 0.00 0.00 78 1000.7
20260906104501 63 130 1.0 2.0 0.00 0.00 0.00 77 1000.6
20260906103928 63 111 1.0 2.0 0.00 0.00 0.00 77 1000.6
20260906102938 63 118 1.0 2.0 0.00 0.00 0.00 77 1000.5
20260906102435 63 130 1.0 2.0 0.00 0.00 0.00 77 1000.3
20260906101931 63 102 1.0 2.0 0.00 0.00 0.00 76 1000.3
20260906101430 63 106 0.0 2.0 0.00 0.00 0.00 77 1000.4
20260906100930 64 110 1.0 2.0 0.00 0.00 0.00 76 1000.2
20260906100651 64 139 0.0 2.0 0.00 0.00 0.00 76 1000.2
20260906095924 64 70 0.0 2.0 0.00 0.00 0.00 76 1000.0
20260906095639 64 116 0.0 2.0 0.00 0.00 0.00 76 1000.0
20260906095140 64 76 0.0 2.0 0.00 0.00 0.00 76 999.8
20260906094410 64 73 1.0 2.0 0.00 0.00 0.00 76 1000.0
20260906093905 64 133 0.0 2.0 0.00 0.00 0.00 76 999.7
20260906093351 65 93 1.0 2.0 0.00 0.00 0.00 76 999.5
20260906092846 65 128 1.0 2.0 0.00 0.00 0.00 76 999.5
20260906092341 65 94 1.0 2.0 0.00 0.00 0.00 76 999.5
20260906091836 65 81 1.0 2.0 0.00 0.00 0.00 75 999.3
20260906091333 65 111 0.0 2.0 0.00 0.00 0.00 75 999.1
20260906090829 65 120 0.0 2.0 0.00 0.00 0.00 75 999.3
20260906090328 66 112 1.0 2.0 0.00 0.00 0.00 75 998.9
20260906090049 66 126 0.0 2.0 0.00 0.00 0.00 75 998.9
20260906085549 66 109 1.0 2.0 0.00 0.00 0.00 75 998.8
20260906084810 66 114 1.0 2.0 0.00 0.00 0.00 75 998.5
20260906084258 67 88 1.0 2.0 0.00 0.00 0.00 75 998.6
20260906084015 67 101 1.0 2.0 0.00 0.00 0.00 76 998.4
20260906083247 67 62 0.0 2.0 0.00 0.00 0.00 75 998.2
20260906082743 67 83 0.0 3.0 0.00 0.00 0.00 75 998.2
20260906082710 67 110 0.0 3.0 0.00 0.00 0.00 75 998.0
20260906081714 67 104 1.0 2.0 0.00 0.00 0.00 75 997.7
20260906081643 68 94 1.0 2.0 0.00 0.00 0.00 75 997.6
20260906080913 68 69 0.0 2.0 0.00 0.00 0.00 75 997.7
20260906080403 68 112 1.0 2.0 0.00 0.00 0.00 74 997.3
20260906075618 68 82 0.0 2.0 0.00 0.00 0.00 74 997.4
20260906075112 69 102 1.0 2.0 0.00 0.00 0.00 73 997.1
20260906074608 69 89 0.0 2.0 0.00 0.00 0.00 74 997.0
20260906074104 69 110 1.0 3.0 0.00 0.00 0.00 73 997.0
20260906073600 69 55 0.0 3.0 0.00 0.00 0.00 74 996.7
20260906073056 70 68 0.0 3.0 0.00 0.00 0.00 74 996.5
20260906072551 70 98 0.0 4.0 0.00 0.00 0.00 73 996.1
20260906072500 70 113 3.0 4.0 0.00 0.00 0.00 73 996.0
20260906071512 71 119 1.0 3.0 0.00 0.00 0.00 72 995.9
20260906071009 71 109 2.0 3.0 0.00 0.00 0.00 73 995.7
20260906070454 71 47 1.0 4.0 0.00 0.00 0.00 73 995.6
20260906070214 71 129 1.0 4.0 0.00 0.00 0.00 73 995.5
20260906065445 71 24 1.0 4.0 0.00 0.00 0.00 72 995.4
20260906064921 72 162 0.0 4.0 0.00 0.00 0.00 72 995.3
20260906064417 72 125 2.0 4.0 0.00 0.00 0.00 73 995.2
20260906063912 73 86 0.0 4.0 0.00 0.00 0.00 73 995.1
20260906063408 73 133 2.0 4.0 0.00 0.00 0.00 75 994.9
20260906062904 73 131 2.0 4.0 0.00 0.00 0.00 75 994.8
20260906062354 73 115 2.0 4.0 0.00 0.00 0.00 74 994.7
20260906062112 74 126 2.0 4.0 0.00 0.00 0.00 72 994.5
20260906061351 74 103 2.0 6.0 0.00 0.00 0.00 70 994.5
20260906060827 75 113 1.0 6.0 0.00 0.00 0.00 69 994.2
20260906060313 75 121 2.0 5.0 0.00 0.00 0.00 67 994.0
20260906055809 76 45 0.0 4.0 0.00 0.00 0.00 67 994.0
20260906055255 76 122 2.0 6.0 0.00 0.00 0.00 64 993.7
20260906054750 77 242 0.0 8.0 0.00 0.00 0.00 60 993.6
20260906054505 77 172 6.0 8.0 0.00 0.00 0.00 57 993.7
20260906053732 78 169 5.0 8.0 0.00 0.00 0.00 56 993.3
20260906053228 79 162 6.0 9.0 0.00 0.00 0.00 54 993.2
20260906052714 80 165 5.0 9.0 0.00 0.00 0.00 52 993.1
20260906052210 81 162 6.0 9.0 0.00 0.00 0.00 49 992.8
20260906051705 82 171 5.0 9.0 0.00 0.00 0.00 45 992.7
20260906051419 83 160 6.0 8.0 0.00 0.00 0.00 40 992.6
20260906050913 84 164 5.0 9.0 0.00 0.00 0.00 39 992.4
20260906050149 87 164 7.0 9.0 0.00 0.00 0.00 34 992.1
20260906045908 89 170 6.0 9.0 0.00 0.00 0.00 24 991.9
20260906045142 89 178 5.0 9.0 0.00 0.00 0.00 25 991.9
20260906044637 89 170 6.0 9.0 0.00 0.00 0.00 24 991.8
20260906044133 89 168 6.0 10.0 0.00 0.00 0.00 25 991.6
20260906043846 89 178 5.0 10.0 0.00 0.00 0.00 24 991.9
20260906043345 89 168 7.0 9.0 0.00 0.00 0.00 24 991.6
20260906042621 89 162 6.0 6.0 0.00 0.00 0.00 23 991.8
20260906042116 89 126 2.0 8.0 0.00 0.00 0.00 23 991.9
20260906041612 90 294 1.0 10.0 0.00 0.00 0.00 25 991.8
20260906041108 90 168 5.0 10.0 0.00 0.00 0.00 24 991.7
20260906040604 90 190 3.0 7.0 0.00 0.00 0.00 25 991.8
20260906040104 91 204 0.0 3.0 0.00 0.00 0.00 25 992.0
20260906035550 91 80 2.0 7.0 0.00 0.00 0.00 27 991.9
20260906035050 91 82 0.0 8.0 0.00 0.00 0.00 25 991.7
20260906034550 91 164 7.0 8.0 0.00 0.00 0.00 27 991.7
20260906034049 91 174 5.0 7.0 0.00 0.00 0.00 26 991.9
20260906033549 91 167 5.0 6.0 0.00 0.00 0.00 29 991.8
20260906033045 91 176 4.0 9.0 0.00 0.00 0.00 28 991.8
20260906032539 92 176 5.0 9.0 0.00 0.00 0.00 28 992.0
20260906032025 92 180 6.0 6.0 0.00 0.00 0.00 29 992.0
20260906031521 93 184 4.0 6.0 0.00 0.00 0.00 30 992.0
20260906031016 93 178 5.0 6.0 0.00 0.00 0.00 31 992.1
20260906030522 92 185 4.0 7.0 0.00 0.00 0.00 32 992.2
20260906030018 93 180 5.0 7.0 0.00 0.00 0.00 30 992.3
20260906025500 94 180 4.0 6.0 0.00 0.00 0.00 30 992.4
20260906024956 92 178 5.0 6.0 0.00 0.00 0.00 32 992.3
20260906024448 93 178 4.0 6.0 0.00 0.00 0.00 31 992.5
20260906023948 94 186 5.0 7.0 0.00 0.00 0.00 29 992.6
20260906023707 93 195 5.0 7.0 0.00 0.00 0.00 32 992.5
20260906022940 92 188 6.0 6.0 0.00 0.00 0.00 31 992.7
20260906022435 92 172 5.0 6.0 0.00 0.00 0.00 34 992.7
20260906022153 91 180 4.0 6.0 0.00 0.00 0.00 32 992.9
20260906021440 91 178 4.0 6.0 0.00 0.00 0.00 32 993.1
20260906020922 92 179 4.0 6.0 0.00 0.00 0.00 31 993.1
20260906020417 91 193 4.0 6.0 0.00 0.00 0.00 31 993.0
20260906015917 91 178 4.0 6.0 0.00 0.00 0.00 33 993.3
20260906015417 91 182 5.0 6.0 0.00 0.00 0.00 31 993.2
20260906015134 92 189 4.0 6.0 0.00 0.00 0.00 32 993.5
20260906014400 90 167 4.0 7.0 0.00 0.00 0.00 31 993.5
20260906013855 90 175 4.0 7.0 0.00 0.00 0.00 33 993.6
20260906013351 91 184 5.0 6.0 0.00 0.00 0.00 32 993.5
20260906012847 91 176 4.0 6.0 0.00 0.00 0.00 34 993.6
20260906012825 91 172 4.0 7.0 0.00 0.00 0.00 32 993.7
20260906011839 91 176 3.0 7.0 0.00 0.00 0.00 33 993.9
20260906011816 92 176 5.0 7.0 0.00 0.00 0.00 33 993.8
20260906010831 91 193 4.0 6.0 0.00 0.00 0.00 35 994.1
20260906010317 91 348 1.0 3.0 0.00 0.00 0.00 34 994.2
20260906005812 92 33 2.0 3.0 0.00 0.00 0.00 33 993.9
20260906005308 91 338 2.0 3.0 0.00 0.00 0.00 32 994.3
20260906004804 91 329 3.0 4.0 0.00 0.00 0.00 32 994.1
20260906004300 92 342 1.0 4.0 0.00 0.00 0.00 32 994.3
20260906003746 92 304 2.0 3.0 0.00 0.00 0.00 33 994.0
20260906003243 91 35 0.0 4.0 0.00 0.00 0.00 34 994.2
20260906002736 91 104 2.0 4.0 0.00 0.00 0.00 33 994.2
20260906002456 91 18 1.0 4.0 0.00 0.00 0.00 32 994.3
20260906001933 90 189 1.0 3.0 0.00 0.00 0.00 33 994.5
20260906001214 90 318 0.0 3.0 0.00 0.00 0.00 34 994.6
20260906000936 91 121 0.0 4.0 0.00 0.00 0.00 33 994.5
20260906000440 90 330 2.0 4.0 0.00 0.00 0.00 34 994.5
20260905235712 90 321 1.0 3.0 0.00 0.00 0.00 34 994.5
20260905235434 89 114 0.0 4.0 0.00 0.00 0.00 35 994.4
20260905234703 90 0 1.0 4.0 0.00 0.00 0.00 32 994.6
20260905234159 90 123 0.0 4.0 0.00 0.00 0.00 34 994.6
20260905233915 89 351 2.0 4.0 0.00 0.00 0.00 39 994.6
20260905233150 90 358 2.0 3.0 0.00 0.00 0.00 35 994.7
20260905232646 89 350 0.0 5.0 0.00 0.00 0.00 34 994.7
20260905232142 89 315 1.0 5.0 0.00 0.00 0.00 33 994.6
20260905231850 89 70 2.0 3.0 0.00 0.00 0.00 34 994.8
20260905231124 88 6 0.0 3.0 0.00 0.00 0.00 35 994.4
20260905230620 89 0 2.0 3.0 0.00 0.00 0.00 34 994.7
20260905230112 88 28 2.0 4.0 0.00 0.00 0.00 35 994.5
20260905225612 88 343 0.0 4.0 0.00 0.00 0.00 35 994.6
20260905225059 87 88 0.0 5.0 0.00 0.00 0.00 36 994.5
20260905224543 87 22 1.0 5.0 0.00 0.00 0.00 36 994.6
20260905224041 87 352 0.0 4.0 0.00 0.00 0.00 37 994.4
20260905223541 86 319 0.0 4.0 0.00 0.00 0.00 38 994.6
20260905223042 86 71 0.0 2.0 0.00 0.00 0.00 39 994.6
20260905222516 86 106 0.0 3.0 0.00 0.00 0.00 40 994.5
20260905222011 85 52 0.0 3.0 0.00 0.00 0.00 39 994.6
20260905221459 85 48 0.0 5.0 0.00 0.00 0.00 40 994.7
20260905220953 84 29 1.0 5.0 0.00 0.00 0.00 39 994.5
20260905220711 83 170 4.0 6.0 0.00 0.00 0.00 43 994.5
20260905215940 83 182 4.0 6.0 0.00 0.00 0.00 43 994.4
20260905215442 83 186 4.0 6.0 0.00 0.00 0.00 43 994.5
20260905214936 82 171 3.0 5.0 0.00 0.00 0.00 44 994.2
20260905214410 82 167 4.0 5.0 0.00 0.00 0.00 43 994.4
20260905214127 81 180 3.0 5.0 0.00 0.00 0.00 44 994.5
20260905213355 80 177 4.0 5.0 0.00 0.00 0.00 48 994.4
20260905212839 80 185 3.0 5.0 0.00 0.00 0.00 46 994.2
20260905212336 79 176 4.0 5.0 0.00 0.00 0.00 47 993.8
20260905211820 78 171 4.0 5.0 0.00 0.00 0.00 47 993.8
20260905211315 78 175 3.0 5.0 0.00 0.00 0.00 49 994.0
20260905210809 77 182 4.0 5.0 0.00 0.00 0.00 48 993.8
20260905210524 76 175 4.0 5.0 0.00 0.00 0.00 50 993.6
20260905205757 76 182 3.0 5.0 0.00 0.00 0.00 49 993.6
20260905205512 76 196 3.0 5.0 0.00 0.00 0.00 48 993.9
20260905204738 76 178 4.0 5.0 0.00 0.00 0.00 49 994.0
20260905204435 74 174 5.0 6.0 0.00 0.00 0.00 51 994.1
20260905203659 73 178 4.0 6.0 0.00 0.00 0.00 52 994.2
20260905203417 73 178 3.0 5.0 0.00 0.00 0.00 52 994.1
20260905202651 73 182 4.0 5.0 0.00 0.00 0.00 52 994.1
20260905202137 73 182 4.0 6.0 0.00 0.00 0.00 52 993.9
20260905201632 73 188 4.0 6.0 0.00 0.00 0.00 51 994.3
20260905201339 73 173 4.0 5.0 0.00 0.00 0.00 51 994.3
20260905200615 72 179 4.0 5.0 0.00 0.00 0.00 54 994.0
20260905200113 72 176 4.0 5.0 0.00 0.00 0.00 53 993.9
20260905195556 73 176 3.0 5.0 0.00 0.00 0.00 54 994.1
20260905195051 73 180 4.0 5.0 0.00 0.00 0.00 53 994.0
20260905194548 74 176 4.0 5.0 0.00 0.00 0.00 49 993.8
20260905194044 73 171 4.0 6.0 0.00 0.00 0.00 51 993.7
20260905193536 73 178 4.0 6.0 0.00 0.00 0.00 51 993.7
20260905193256 73 184 4.0 8.0 0.00 0.00 0.00 51 993.5
20260905192532 73 173 4.0 8.0 0.00 0.00 0.00 51 993.5
20260905192247 74 183 4.0 7.0 0.00 0.00 0.00 51 993.4
20260905191523 73 179 4.0 6.0 0.00 0.00 0.00 52 993.5
20260905191032 74 180 5.0 7.0 0.00 0.00 0.00 53 993.3
20260905190956 74 178 4.0 7.0 0.00 0.00 0.00 51 993.3
20260905190010 74 178 4.0 6.0 0.00 0.00 0.00 53 993.2
20260905185518 73 187 4.0 6.0 0.00 0.00 0.00 54 993.2
20260905184952 73 183 3.0 6.0 0.00 0.00 0.00 55 993.2
20260905184448 73 174 4.0 6.0 0.00 0.00 0.00 55 992.9
20260905183943 73 184 4.0 6.0 0.00 0.00 0.00 56 993.1
20260905183439 73 204 3.0 6.0 0.00 0.00 0.00 55 993.0
20260905182935 73 181 4.0 6.0 0.00 0.00 0.00 55 993.3
20260905182434 73 181 3.0 6.0 0.00 0.00 0.00 56 993.2
20260905181934 72 181 4.0 6.0 0.00 0.00 0.00 57 992.9
20260905181629 72 188 3.0 5.0 0.00 0.00 0.00 58 993.2
20260905180907 72 174 4.0 5.0 0.00 0.00 0.00 58 993.4
20260905180416 73 179 3.0 5.0 0.00 0.00 0.00 57 993.1
20260905175859 73 178 4.0 6.0 0.00 0.00 0.00 57 993.1
20260905175356 73 180 4.0 6.0 0.00 0.00 0.00 57 993.1
20260905174841 72 179 5.0 6.0 0.00 0.00 0.00 57 993.1
20260905174333 72 176 4.0 6.0 0.00 0.00 0.00 57 992.8
20260905174036 72 179 4.0 6.0 0.00 0.00 0.00 58 992.9
20260905173307 72 172 3.0 6.0 0.00 0.00 0.00 58 992.8
20260905172754 72 175 4.0 6.0 0.00 0.00 0.00 58 992.9
20260905172250 71 181 4.0 6.0 0.00 0.00 0.00 60 993.2
20260905172009 72 180 5.0 6.0 0.00 0.00 0.00 61 993.0
20260905171231 71 165 4.0 6.0 0.00 0.00 0.00 61 993.5
20260905170727 71 180 4.0 5.0 0.00 0.00 0.00 61 993.1
20260905170210 71 179 4.0 5.0 0.00 0.00 0.00 61 993.1
20260905165702 72 174 4.0 6.0 0.00 0.00 0.00 61 993.0
20260905165412 72 186 4.0 6.0 0.00 0.00 0.00 60 992.9
20260905164618 72 181 4.0 5.0 0.00 0.00 0.00 60 992.9
20260905164114 72 181 4.0 5.0 0.00 0.00 0.00 59 992.8
20260905163608 72 186 4.0 5.0 0.00 0.00 0.00 59 992.7
20260905163104 72 184 4.0 5.0 0.00 0.00 0.00 59 992.8
20260905162548 72 180 4.0 5.0 0.00 0.00 0.00 60 992.8
20260905162044 72 178 4.0 5.0 0.00 0.00 0.00 60 992.8
20260905161759 72 183 5.0 5.0 0.00 0.00 0.00 60 993.1
20260905161030 72 180 3.0 5.0 0.00 0.00 0.00 60 993.1
20260905160531 72 178 3.0 5.0 0.00 0.00 0.00 59 993.2
20260905160243 72 184 4.0 6.0 0.00 0.00 0.00 59 993.2
20260905155514 72 181 4.0 6.0 0.00 0.00 0.00 58 993.3
20260905155229 72 188 4.0 5.0 0.00 0.00 0.00 58 993.3
20260905154455 72 177 3.0 5.0 0.00 0.00 0.00 58 993.5
20260905154213 72 177 4.0 5.0 0.00 0.00 0.00 58 993.4
20260905153427 72 178 4.0 5.0 0.00 0.00 0.00 57 993.3
20260905152912 71 177 4.0 6.0 0.00 0.00 0.00 58 993.4